TimeCST,TemperatureF,Dew PointF,Humidity,Sea Level PressureIn,VisibilityMPH,Wind Direction,Wind SpeedMPH,Gust SpeedMPH,PrecipitationIn,Events,Conditions,WindDirDegrees,DateUTC
12:53 AM,19.9,17.1,89,30.08,6.0,ENE,11.5,-,0.00,Snow,Light Snow,70,2012-12-28 06:53:00
1:53 AM,19.9,16.0,85,30.07,5.0,East,10.4,-,0.00,Snow,Light Snow,80,2012-12-28 07:53:00
2:30 AM,19.4,15.8,86,30.01,2.0,ENE,12.7,-,0.00,Snow,Light Snow,70,2012-12-28 08:30:00
2:39 AM,19.4,15.8,86,30.01,1.8,ENE,11.5,-,0.00,Snow,Light Snow,70,2012-12-28 08:39:00
2:42 AM,19.4,15.8,86,30.01,2.0,ENE,11.5,-,0.00,Snow,Light Snow,70,2012-12-28 08:42:00
2:53 AM,19.9,16.0,85,30.08,2.5,ENE,12.7,-,0.00,Snow,Light Snow,70,2012-12-28 08:53:00
3:05 AM,19.4,15.8,86,30.01,3.0,ENE,9.2,-,0.00,Snow,Light Snow,70,2012-12-28 09:05:00
3:53 AM,19.9,16.0,85,30.06,2.5,ENE,10.4,-,0.00,Snow,Light Snow,70,2012-12-28 09:53:00
4:09 AM,19.4,15.8,86,29.99,3.0,ENE,9.2,-,0.00,Snow,Light Snow,70,2012-12-28 10:09:00
5:53 AM,19.0,15.1,85,30.04,3.0,ENE,9.2,-,0.00,Snow,Light Snow,60,2012-12-28 11:53:00
6:53 AM,19.0,15.1,85,30.06,4.0,NE,6.9,-,0.00,Snow,Light Snow,50,2012-12-28 12:53:00
7:53 AM,19.0,15.1,85,30.05,2.5,NE,6.9,-,0.00,Snow,Light Snow,50,2012-12-28 13:53:00
8:44 AM,19.4,15.8,86,29.99,3.0,NE,6.9,-,0.00,,Overcast,50,2012-12-28 14:44:00
8:53 AM,19.0,15.1,85,30.06,3.0,NE,8.1,-,0.00,,Overcast,40,2012-12-28 14:53:00
9:24 AM,19.4,15.8,86,30.00,2.5,NNE,8.1,-,N/A,,Overcast,30,2012-12-28 15:24:00
9:32 AM,19.4,15.8,86,30.00,3.0,NNE,9.2,-,N/A,,Overcast,30,2012-12-28 15:32:00
9:53 AM,19.0,14.0,81,30.07,4.0,NNE,9.2,-,N/A,,Haze,30,2012-12-28 15:53:00
10:30 AM,19.4,14.0,80,30.01,4.0,NNE,6.9,-,N/A,,Haze,20,2012-12-28 16:30:00
10:53 AM,18.0,12.9,81,30.08,4.0,North,8.1,-,0.00,Snow,Light Snow,10,2012-12-28 16:53:00
11:11 AM,17.6,12.2,79,30.00,3.0,North,6.9,-,0.00,Snow,Light Snow,10,2012-12-28 17:11:00
11:53 AM,19.9,14.0,78,30.05,6.0,NNE,9.2,-,0.00,,Haze,20,2012-12-28 17:53:00
12:53 PM,19.9,15.1,81,30.04,7.0,North,10.4,-,N/A,,Overcast,10,2012-12-28 18:53:00
1:50 PM,19.4,14.0,80,29.97,7.0,North,12.7,-,N/A,,Overcast,350,2012-12-28 19:50:00
1:53 PM,19.9,14.0,78,30.03,7.0,NNW,11.5,-,N/A,,Mostly Cloudy,340,2012-12-28 19:53:00
2:20 PM,19.4,12.2,74,29.96,6.0,North,11.5,-,N/A,,Haze,350,2012-12-28 20:20:00
2:53 PM,19.0,12.9,77,30.04,6.0,North,10.4,-,N/A,,Haze,350,2012-12-28 20:53:00
3:04 PM,19.4,12.2,74,29.98,6.0,North,8.1,-,N/A,,Haze,360,2012-12-28 21:04:00
3:32 PM,17.6,12.2,79,29.99,6.0,North,10.4,-,N/A,,Haze,350,2012-12-28 21:32:00
3:41 PM,17.6,12.2,79,29.99,6.0,North,9.2,-,N/A,,Haze,360,2012-12-28 21:41:00
3:53 PM,17.1,10.9,77,30.06,6.0,North,8.1,-,N/A,,Haze,350,2012-12-28 21:53:00
4:31 PM,15.8,10.4,79,30.00,6.0,North,6.9,-,N/A,,Haze,350,2012-12-28 22:31:00
4:53 PM,16.0,12.0,84,30.07,6.0,North,6.9,-,N/A,,Overcast,350,2012-12-28 22:53:00
5:53 PM,15.1,10.9,84,30.08,7.0,North,10.4,-,N/A,,Overcast,350,2012-12-28 23:53:00
6:10 PM,15.8,10.4,79,30.01,6.0,NNW,10.4,-,N/A,,Overcast,340,2012-12-29 00:10:00
6:53 PM,14.0,10.0,84,30.10,5.0,North,10.4,-,N/A,,Overcast,350,2012-12-29 00:53:00
7:24 PM,12.2,8.6,85,30.03,4.0,NNW,12.7,-,N/A,,Mostly Cloudy,340,2012-12-29 01:24:00
7:28 PM,12.2,8.6,85,30.03,3.0,NNW,12.7,-,N/A,,Mostly Cloudy,340,2012-12-29 01:28:00
7:53 PM,12.9,10.9,92,30.11,5.0,NNW,9.2,-,N/A,,Overcast,340,2012-12-29 01:53:00
8:53 PM,12.9,10.0,88,30.12,6.0,NW,6.9,-,N/A,,Overcast,320,2012-12-29 02:53:00
9:53 PM,12.9,10.0,88,30.12,4.0,NW,10.4,-,N/A,,Overcast,320,2012-12-29 03:53:00
10:02 PM,12.2,10.4,92,30.04,3.0,NNW,12.7,-,N/A,,Overcast,330,2012-12-29 04:02:00
10:09 PM,12.2,10.4,92,30.04,2.5,NNW,10.4,-,N/A,,Overcast,330,2012-12-29 04:09:00
10:19 PM,12.2,10.4,92,30.05,3.0,NNW,12.7,-,N/A,,Overcast,340,2012-12-29 04:19:00
10:53 PM,12.0,9.0,88,30.13,4.0,NW,8.1,-,0.00,,Overcast,320,2012-12-29 04:53:00
11:53 PM,12.9,10.0,88,30.13,4.0,NNW,10.4,-,0.00,Snow,Light Snow,340,2012-12-29 05:53:00